Darstellungsparameter: Aktuell verwendete Einstellungen:
Skalierung der Graphiken ... ?
xyx+y,   Skalierungsfaktor:      Skalierung: Modus: x, Faktor: 1
Darstellungszeitraum ... ?
Vom - - bis: - -   Zeitraum: 06.09.2020 - 06.09.2020
Min/Max/Avg-Anzeige ... ?
Zeige MMA aktuell
Zeige MMA Monat
Zeige MMA alles
Zeige --A aktuell
Zeige --A Monat
Zeige --A alles
Keine MMA-Anzeige
MMA:
Average (ber die Originaldaten)
MMA-Basis: 06.09.2020 - 06.09.2020
Quicknavigation für Darstellung... ?
Tage:      1T, 2T, 3T, 5T -1T -2T -3T -5T +1T +2T +3T +5T
Wochen: 1W, 2W, 3W -1W -2W -3W +1W +2W +3W
Monate: 1M, 3M, 6M -1M -3M -6M +1M +3M +6M
Jahre:    1J, 3J, 5J, 10J -1J -3J -5J -10J +1J +3J +5J +10J
Nutze für die Darstellung ... ?
Originaldaten oder Mittelwerte auf ...
Stundenbasis Tagesbasis Wochenbasis
Monatsbasis Jahresbasis      Datenbasis: Original-Daten
Darstellen als:
Statistik (Auto) Statistik J:M      Darstellung:
Zur Graphik,    zurück zur Übersicht aller Sensoren.
 
Tabellarische Datenbersicht: ?
 
Sensor: Nr:Datum:Temp:Abs-Feuchte:Windchill:Wind:
Aussen-T/F 1 06-09-2020 00:00:00 12.8 C 9.18 g/m*3 12.8 C 3.2 km/h
2 06-09-2020 00:05:00 12.8 C 9.18 g/m*3 12.8 C 3.2 km/h
3 06-09-2020 00:10:00 12.7 C 9.24 g/m*3 12.7 C 3.2 km/h
4 06-09-2020 00:15:00 12.7 C 9.24 g/m*3 12.7 C 4.8 km/h
5 06-09-2020 00:20:00 12.7 C 9.24 g/m*3 12.7 C 4.8 km/h
6 06-09-2020 00:25:00 12.6 C 9.18 g/m*3 12.6 C 3.2 km/h
7 06-09-2020 00:30:00 12.6 C 9.18 g/m*3 12.6 C 0 km/h
8 06-09-2020 00:35:00 12.5 C 9.13 g/m*3 12.5 C 3.2 km/h
9 06-09-2020 00:40:00 12.4 C 9.18 g/m*3 12.4 C 1.6 km/h
10 06-09-2020 00:45:00 12.3 C 9.12 g/m*3 12.3 C 4.8 km/h
11 06-09-2020 00:50:00 12.3 C 9.23 g/m*3 12.3 C 1.6 km/h
12 06-09-2020 00:55:00 12.2 C 9.17 g/m*3 12.2 C 0 km/h
13 06-09-2020 01:00:00 12.2 C 9.17 g/m*3 12.2 C 0 km/h
14 06-09-2020 01:05:00 12.1 C 9.22 g/m*3 12.1 C 0 km/h
15 06-09-2020 01:10:00 11.9 C 9.11 g/m*3 11.9 C 0 km/h
16 06-09-2020 01:15:00 11.9 C 9.11 g/m*3 11.9 C 0 km/h
17 06-09-2020 01:20:00 11.8 C 9.16 g/m*3 11.8 C 0 km/h
18 06-09-2020 01:25:00 11.8 C 9.16 g/m*3 11.8 C 0 km/h
19 06-09-2020 01:30:00 11.8 C 9.16 g/m*3 11.8 C 0 km/h
20 06-09-2020 01:35:00 11.7 C 9.1 g/m*3 11.7 C 0 km/h
21 06-09-2020 01:40:00 11.6 C 9.04 g/m*3 11.6 C 0 km/h
22 06-09-2020 01:45:00 11.4 C 8.93 g/m*3 11.4 C 0 km/h
23 06-09-2020 01:50:00 11.3 C 8.87 g/m*3 11.3 C 0 km/h
24 06-09-2020 01:55:00 11.2 C 8.92 g/m*3 11.2 C 0 km/h
25 06-09-2020 02:00:00 11.1 C 8.76 g/m*3 11.1 C 0 km/h
Sensor: Nr:Datum:Temp:Abs-Feuchte:Windchill:Wind:
Aussen-T/F 26 06-09-2020 02:05:00 10.9 C 8.75 g/m*3 10.9 C 0 km/h
27 06-09-2020 02:10:00 10.8 C 8.7 g/m*3 10.8 C 0 km/h
28 06-09-2020 02:15:00 10.7 C 8.64 g/m*3 10.7 C 1.6 km/h
29 06-09-2020 02:20:00 10.6 C 8.69 g/m*3 10.6 C 0 km/h
30 06-09-2020 02:25:00 10.5 C 8.63 g/m*3 10.5 C 0 km/h
31 06-09-2020 02:30:00 10.4 C 8.58 g/m*3 10.4 C 0 km/h
32 06-09-2020 02:35:00 10.4 C 8.58 g/m*3 10.4 C 0 km/h
33 06-09-2020 02:40:00 10.3 C 8.52 g/m*3 10.3 C 0 km/h
34 06-09-2020 02:45:00 10.2 C 8.47 g/m*3 10.2 C 0 km/h
35 06-09-2020 02:50:00 10.2 C 8.56 g/m*3 10.2 C 0 km/h
36 06-09-2020 02:55:00 10.1 C 8.51 g/m*3 10.1 C 0 km/h
37 06-09-2020 03:00:00 10 C 8.46 g/m*3 10 C 0 km/h
38 06-09-2020 03:05:00 9.9 C 8.4 g/m*3 9.9 C 0 km/h
39 06-09-2020 03:10:00 9.9 C 8.4 g/m*3 9.9 C 0 km/h
40 06-09-2020 03:15:00 9.8 C 8.35 g/m*3 9.8 C 1.6 km/h
41 06-09-2020 03:20:00 9.7 C 8.3 g/m*3 9.7 C 0 km/h
42 06-09-2020 03:25:00 9.7 C 8.39 g/m*3 9.7 C 0 km/h
43 06-09-2020 03:30:00 9.6 C 8.34 g/m*3 9.6 C 0 km/h
44 06-09-2020 03:35:00 9.6 C 8.34 g/m*3 9.6 C 0 km/h
45 06-09-2020 03:40:00 9.5 C 8.28 g/m*3 9.5 C 0 km/h
46 06-09-2020 03:45:00 9.4 C 8.23 g/m*3 9.4 C 1.6 km/h
47 06-09-2020 03:50:00 9.4 C 8.32 g/m*3 9.4 C 0 km/h
48 06-09-2020 03:55:00 9.3 C 8.27 g/m*3 9.3 C 0 km/h
49 06-09-2020 04:00:00 9.3 C 8.27 g/m*3 9.3 C 0 km/h
50 06-09-2020 04:05:00 9.3 C 8.36 g/m*3 9.3 C 0 km/h
Sensor: Nr:Datum:Temp:Abs-Feuchte:Windchill:Wind:
Aussen-T/F 51 06-09-2020 04:10:00 9.3 C 8.27 g/m*3 9.3 C 0 km/h
52 06-09-2020 04:15:00 9.3 C 8.27 g/m*3 9.3 C 0 km/h
53 06-09-2020 04:20:00 9.2 C 8.22 g/m*3 9.2 C 0 km/h
54 06-09-2020 04:25:00 9.1 C 8.16 g/m*3 9.1 C 0 km/h
55 06-09-2020 04:30:00 9.1 C 8.16 g/m*3 9.1 C 0 km/h
56 06-09-2020 04:35:00 8.9 C 8.06 g/m*3 8.9 C 0 km/h
57 06-09-2020 04:40:00 8.9 C 8.06 g/m*3 8.9 C 0 km/h
58 06-09-2020 04:45:00 8.8 C 8.01 g/m*3 8.8 C 1.6 km/h
59 06-09-2020 04:50:00 8.8 C 8.09 g/m*3 8.8 C 0 km/h
60 06-09-2020 04:55:00 8.8 C 8.09 g/m*3 8.8 C 0 km/h
61 06-09-2020 05:00:00 8.7 C 8.04 g/m*3 8.7 C 1.6 km/h
62 06-09-2020 05:05:00 8.7 C 8.04 g/m*3 8.7 C 0 km/h
63 06-09-2020 05:10:00 8.7 C 8.04 g/m*3 8.7 C 0 km/h
64 06-09-2020 05:15:00 8.7 C 8.04 g/m*3 8.7 C 0 km/h
65 06-09-2020 05:20:00 8.6 C 7.99 g/m*3 8.6 C 1.6 km/h
66 06-09-2020 05:25:00 8.6 C 7.99 g/m*3 8.6 C 1.6 km/h
67 06-09-2020 05:30:00 8.6 C 8.08 g/m*3 8.6 C 0 km/h
68 06-09-2020 05:35:00 8.7 C 8.13 g/m*3 8.7 C 0 km/h
69 06-09-2020 05:40:00 8.6 C 8.08 g/m*3 8.6 C 0 km/h
70 06-09-2020 05:45:00 8.6 C 7.99 g/m*3 8.6 C 0 km/h
71 06-09-2020 05:50:00 8.4 C 7.97 g/m*3 8.4 C 0 km/h
72 06-09-2020 05:55:00 8.4 C 7.97 g/m*3 8.4 C 0 km/h
73 06-09-2020 06:00:00 8.3 C 7.84 g/m*3 8.3 C 0 km/h
74 06-09-2020 06:05:00 8.3 C 7.84 g/m*3 8.3 C 0 km/h
75 06-09-2020 06:10:00 8.2 C 7.87 g/m*3 8.2 C 0 km/h
Sensor: Nr:Datum:Temp:Abs-Feuchte:Windchill:Wind:
Aussen-T/F 76 06-09-2020 06:15:00 8.2 C 7.87 g/m*3 8.2 C 0 km/h
77 06-09-2020 06:20:00 8.1 C 7.82 g/m*3 8.1 C 0 km/h
78 06-09-2020 06:25:00 8.1 C 7.82 g/m*3 8.1 C 0 km/h
79 06-09-2020 06:30:00 8 C 7.77 g/m*3 8 C 0 km/h
80 06-09-2020 06:35:00 8.1 C 7.82 g/m*3 8.1 C 0 km/h
81 06-09-2020 06:40:00 8.2 C 7.87 g/m*3 8.2 C 0 km/h
82 06-09-2020 06:45:00 8.2 C 7.87 g/m*3 8.2 C 0 km/h
83 06-09-2020 06:50:00 8.2 C 7.87 g/m*3 8.2 C 0 km/h
84 06-09-2020 06:55:00 8.2 C 7.87 g/m*3 8.2 C 0 km/h
85 06-09-2020 07:00:00 8.1 C 7.82 g/m*3 8.1 C 0 km/h
86 06-09-2020 07:05:00 7.9 C 7.72 g/m*3 7.9 C 0 km/h
87 06-09-2020 07:10:00 7.9 C 7.72 g/m*3 7.9 C 1.6 km/h
88 06-09-2020 07:15:00 7.9 C 7.8 g/m*3 7.9 C 0 km/h
89 06-09-2020 07:20:00 8 C 7.85 g/m*3 8 C 0 km/h
90 06-09-2020 07:25:00 8 C 7.85 g/m*3 8 C 0 km/h
91 06-09-2020 07:30:00 8.1 C 7.9 g/m*3 8.1 C 0 km/h
92 06-09-2020 07:35:00 8.1 C 7.9 g/m*3 8.1 C 0 km/h
93 06-09-2020 07:40:00 8.1 C 7.9 g/m*3 8.1 C 0 km/h
94 06-09-2020 07:45:00 8.1 C 7.9 g/m*3 8.1 C 0 km/h
95 06-09-2020 07:50:00 8.1 C 7.9 g/m*3 8.1 C 0 km/h
96 06-09-2020 07:55:00 8.1 C 7.9 g/m*3 8.1 C 0 km/h
97 06-09-2020 08:00:00 8 C 7.85 g/m*3 8 C 0 km/h
98 06-09-2020 08:05:00 8 C 7.85 g/m*3 8 C 0 km/h
99 06-09-2020 08:10:00 8 C 7.85 g/m*3 8 C 0 km/h
100 06-09-2020 08:15:00 8 C 7.85 g/m*3 8 C 0 km/h
Sensor: Nr:Datum:Temp:Abs-Feuchte:Windchill:Wind:
Aussen-T/F 101 06-09-2020 08:20:00 8.1 C 7.9 g/m*3 8.1 C 0 km/h
102 06-09-2020 08:25:00 8.1 C 7.9 g/m*3 8.1 C 0 km/h
103 06-09-2020 08:30:00 8.1 C 7.9 g/m*3 8.1 C 0 km/h
104 06-09-2020 08:35:00 8.1 C 7.9 g/m*3 8.1 C 3.2 km/h
105 06-09-2020 08:40:00 8.2 C 7.96 g/m*3 8.2 C 3.2 km/h
106 06-09-2020 08:45:00 8.2 C 7.96 g/m*3 8.2 C 0 km/h
107 06-09-2020 08:50:00 8.3 C 8.01 g/m*3 8.3 C 0 km/h
108 06-09-2020 08:55:00 8.4 C 8.06 g/m*3 8.4 C 0 km/h
109 06-09-2020 09:00:00 8.5 C 8.2 g/m*3 8.5 C 0 km/h
110 06-09-2020 09:05:00 8.6 C 8.25 g/m*3 8.6 C 1.6 km/h
111 06-09-2020 09:10:00 8.7 C 8.22 g/m*3 8.7 C 0 km/h
112 06-09-2020 09:15:00 8.7 C 8.22 g/m*3 8.7 C 0 km/h
113 06-09-2020 09:20:00 8.8 C 8.27 g/m*3 8.8 C 3.2 km/h
114 06-09-2020 09:25:00 8.8 C 8.36 g/m*3 8.8 C 3.2 km/h
115 06-09-2020 09:30:00 8.9 C 8.41 g/m*3 8.9 C 0 km/h
116 06-09-2020 09:35:00 9.1 C 8.52 g/m*3 9.1 C 0 km/h
117 06-09-2020 09:40:00 9.2 C 8.57 g/m*3 9.2 C 0 km/h
118 06-09-2020 09:45:00 9.3 C 8.63 g/m*3 9.3 C 3.2 km/h
119 06-09-2020 09:50:00 9.4 C 8.68 g/m*3 9.4 C 4.8 km/h
120 06-09-2020 09:55:00 9.6 C 8.79 g/m*3 9.6 C 0 km/h
121 06-09-2020 10:00:00 9.7 C 8.85 g/m*3 9.7 C 0 km/h
122 06-09-2020 10:05:00 9.8 C 8.91 g/m*3 9.8 C 1.6 km/h
123 06-09-2020 10:10:00 9.9 C 8.96 g/m*3 9.9 C 1.6 km/h
124 06-09-2020 10:15:00 10.1 C 9.08 g/m*3 10.1 C 1.6 km/h
125 06-09-2020 10:20:00 10.3 C 9.19 g/m*3 10.3 C 0 km/h
Sensor: Nr:Datum:Temp:Abs-Feuchte:Windchill:Wind:
Aussen-T/F 126 06-09-2020 10:25:00 10.4 C 9.25 g/m*3 10.4 C 0 km/h
127 06-09-2020 10:30:00 10.6 C 9.37 g/m*3 10.6 C 0 km/h
128 06-09-2020 10:35:00 10.8 C 9.39 g/m*3 10.8 C 0 km/h
129 06-09-2020 10:40:00 11.1 C 9.57 g/m*3 11.1 C 0 km/h
130 06-09-2020 10:45:00 11.3 C 9.59 g/m*3 11.3 C 0 km/h
131 06-09-2020 10:50:00 11.6 C 9.77 g/m*3 11.6 C 0 km/h
132 06-09-2020 10:55:00 11.8 C 9.79 g/m*3 11.8 C 0 km/h
133 06-09-2020 11:00:00 12.1 C 9.76 g/m*3 12.1 C 0 km/h
134 06-09-2020 11:05:00 12.4 C 9.83 g/m*3 12.4 C 0 km/h
135 06-09-2020 11:10:00 12.7 C 9.68 g/m*3 12.7 C 0 km/h
136 06-09-2020 11:15:00 12.9 C 9.81 g/m*3 12.9 C 0 km/h
137 06-09-2020 11:20:00 13.3 C 9.82 g/m*3 13.3 C 0 km/h
138 06-09-2020 11:25:00 13.6 C 9.77 g/m*3 13.6 C 0 km/h
139 06-09-2020 11:30:00 14 C 9.53 g/m*3 14 C 0 km/h
140 06-09-2020 11:35:00 14.4 C 9.52 g/m*3 14.4 C 0 km/h
141 06-09-2020 11:40:00 14.7 C 9.32 g/m*3 14.7 C 0 km/h
142 06-09-2020 11:45:00 15 C 9.23 g/m*3 15 C 0 km/h
143 06-09-2020 11:50:00 15.3 C 9.4 g/m*3 15.3 C 0 km/h
144 06-09-2020 11:55:00 15.7 C 9.5 g/m*3 15.7 C 6.4 km/h
145 06-09-2020 12:00:00 15.8 C 9.29 g/m*3 15.8 C 4.8 km/h
146 06-09-2020 12:05:00 16 C 9.4 g/m*3 16 C 4.8 km/h
147 06-09-2020 12:10:00 16.1 C 9.32 g/m*3 16.1 C 0 km/h
148 06-09-2020 12:15:00 16.2 C 9.38 g/m*3 16.2 C 3.2 km/h
149 06-09-2020 12:20:00 16.3 C 9.3 g/m*3 16.3 C 6.4 km/h
150 06-09-2020 12:25:00 16.3 C 9.16 g/m*3 16.3 C 3.2 km/h
Sensor: Nr:Datum:Temp:Abs-Feuchte:Windchill:Wind:
Aussen-T/F 151 06-09-2020 12:30:00 16.4 C 9.07 g/m*3 16.4 C 9.7 km/h
152 06-09-2020 12:35:00 16.6 C 9.04 g/m*3 16.6 C 8.1 km/h
153 06-09-2020 12:40:00 16.7 C 9.1 g/m*3 16.7 C 3.2 km/h
154 06-09-2020 12:45:00 16.8 C 9.01 g/m*3 16.8 C 0 km/h
155 06-09-2020 12:50:00 16.9 C 8.92 g/m*3 16.9 C 6.4 km/h
156 06-09-2020 12:55:00 17.1 C 9.17 g/m*3 17.1 C 8.1 km/h
157 06-09-2020 13:00:00 17.2 C 9.23 g/m*3 17.2 C 8.1 km/h
158 06-09-2020 13:05:00 17.3 C 8.99 g/m*3 17.3 C 8.1 km/h
159 06-09-2020 13:10:00 17.4 C 8.89 g/m*3 17.4 C 3.2 km/h
160 06-09-2020 13:15:00 17.4 C 8.89 g/m*3 17.4 C 8.1 km/h
161 06-09-2020 13:20:00 17.5 C 8.8 g/m*3 17.5 C 6.4 km/h
162 06-09-2020 13:25:00 17.5 C 8.65 g/m*3 17.5 C 0 km/h
163 06-09-2020 13:30:00 17.4 C 8.89 g/m*3 17.4 C 0 km/h
164 06-09-2020 13:35:00 17.4 C 8.74 g/m*3 17.4 C 0 km/h
165 06-09-2020 13:40:00 17.4 C 8.74 g/m*3 17.4 C 0 km/h
166 06-09-2020 13:45:00 17.5 C 8.65 g/m*3 17.5 C 0 km/h
167 06-09-2020 13:50:00 17.6 C 8.85 g/m*3 17.6 C 6.4 km/h
168 06-09-2020 13:55:00 17.8 C 8.65 g/m*3 17.8 C 8.1 km/h
169 06-09-2020 14:00:00 17.9 C 8.7 g/m*3 17.9 C 8.1 km/h
170 06-09-2020 14:05:00 18.1 C 8.65 g/m*3 18.1 C 3.2 km/h
171 06-09-2020 14:10:00 18.2 C 8.86 g/m*3 18.2 C 6.4 km/h
172 06-09-2020 14:15:00 18.4 C 8.81 g/m*3 18.4 C 4.8 km/h
173 06-09-2020 14:20:00 18.6 C 8.44 g/m*3 18.6 C 4.8 km/h
174 06-09-2020 14:25:00 18.7 C 8.65 g/m*3 18.7 C 3.2 km/h
175 06-09-2020 14:30:00 18.8 C 8.86 g/m*3 18.8 C 6.4 km/h
Sensor: Nr:Datum:Temp:Abs-Feuchte:Windchill:Wind:
Aussen-T/F 176 06-09-2020 14:35:00 18.8 C 8.86 g/m*3 18.8 C 8.1 km/h
177 06-09-2020 14:40:00 18.8 C 8.86 g/m*3 18.8 C 3.2 km/h
178 06-09-2020 14:45:00 18.9 C 8.91 g/m*3 18.9 C 6.4 km/h
179 06-09-2020 14:50:00 19.1 C 9.02 g/m*3 19.1 C 0 km/h
180 06-09-2020 14:55:00 19.1 C 9.02 g/m*3 19.1 C 0 km/h
181 06-09-2020 15:00:00 19.2 C 8.74 g/m*3 19.2 C 9.7 km/h
182 06-09-2020 15:05:00 19.1 C 8.52 g/m*3 19.1 C 11.3 km/h
183 06-09-2020 15:10:00 18.9 C 8.42 g/m*3 18.9 C 4.8 km/h
184 06-09-2020 15:15:00 18.9 C 8.59 g/m*3 18.9 C 6.4 km/h
185 06-09-2020 15:20:00 19 C 8.64 g/m*3 19 C 6.4 km/h
186 06-09-2020 15:25:00 19.1 C 8.52 g/m*3 19.1 C 0 km/h
187 06-09-2020 15:30:00 19.2 C 8.74 g/m*3 19.2 C 0 km/h
188 06-09-2020 15:35:00 19.2 C 8.41 g/m*3 19.2 C 6.4 km/h
189 06-09-2020 15:40:00 19.1 C 8.85 g/m*3 19.1 C 6.4 km/h
190 06-09-2020 15:45:00 19.1 C 8.69 g/m*3 19.1 C 8.1 km/h
191 06-09-2020 15:50:00 18.9 C 8.59 g/m*3 18.9 C 8.1 km/h
192 06-09-2020 15:55:00 18.8 C 8.54 g/m*3 18.8 C 8.1 km/h
193 06-09-2020 16:00:00 18.7 C 8.49 g/m*3 18.7 C 9.7 km/h
194 06-09-2020 16:05:00 18.6 C 8.44 g/m*3 18.6 C 4.8 km/h
195 06-09-2020 16:10:00 18.5 C 8.54 g/m*3 18.5 C 0 km/h
196 06-09-2020 16:15:00 18.4 C 8.34 g/m*3 18.4 C 1.6 km/h
197 06-09-2020 16:20:00 18.4 C 8.34 g/m*3 18.4 C 3.2 km/h
198 06-09-2020 16:25:00 18.4 C 8.34 g/m*3 18.4 C 0 km/h
199 06-09-2020 16:30:00 18.4 C 8.34 g/m*3 18.4 C 8.1 km/h
200 06-09-2020 16:35:00 18.4 C 8.34 g/m*3 18.4 C 6.4 km/h
Sensor: Nr:Datum:Temp:Abs-Feuchte:Windchill:Wind:
Aussen-T/F 201 06-09-2020 16:40:00 18.5 C 8.39 g/m*3 18.5 C 4.8 km/h
202 06-09-2020 16:45:00 18.5 C 8.39 g/m*3 18.5 C 8.1 km/h
203 06-09-2020 16:50:00 18.6 C 8.59 g/m*3 18.6 C 11.3 km/h
204 06-09-2020 16:55:00 18.6 C 8.59 g/m*3 18.6 C 8.1 km/h
205 06-09-2020 17:00:00 18.6 C 8.59 g/m*3 18.6 C 9.7 km/h
206 06-09-2020 17:05:00 18.7 C 8.49 g/m*3 18.7 C 8.1 km/h
207 06-09-2020 17:10:00 18.7 C 8.49 g/m*3 18.7 C 8.1 km/h
208 06-09-2020 17:15:00 18.7 C 8.65 g/m*3 18.7 C 3.2 km/h
209 06-09-2020 17:20:00 18.7 C 8.65 g/m*3 18.7 C 6.4 km/h
210 06-09-2020 17:25:00 18.7 C 8.49 g/m*3 18.7 C 4.8 km/h
211 06-09-2020 17:30:00 18.6 C 8.59 g/m*3 18.6 C 9.7 km/h
212 06-09-2020 17:35:00 18.6 C 8.91 g/m*3 18.6 C 8.1 km/h
213 06-09-2020 17:40:00 18.5 C 8.86 g/m*3 18.5 C 9.7 km/h
214 06-09-2020 17:45:00 18.4 C 8.97 g/m*3 18.4 C 9.7 km/h
215 06-09-2020 17:50:00 18.3 C 8.6 g/m*3 18.3 C 8.1 km/h
216 06-09-2020 17:55:00 18.3 C 8.91 g/m*3 18.3 C 4.8 km/h
217 06-09-2020 18:00:00 18.3 C 8.76 g/m*3 18.3 C 6.4 km/h
218 06-09-2020 18:05:00 18.3 C 8.76 g/m*3 18.3 C 4.8 km/h
219 06-09-2020 18:10:00 18.3 C 8.76 g/m*3 18.3 C 4.8 km/h
220 06-09-2020 18:15:00 18.4 C 8.81 g/m*3 18.4 C 1.6 km/h
221 06-09-2020 18:20:00 18.9 C 8.91 g/m*3 18.9 C 0 km/h
222 06-09-2020 18:25:00 19.3 C 8.79 g/m*3 19.3 C 0 km/h
223 06-09-2020 18:30:00 19.6 C 8.78 g/m*3 19.6 C 0 km/h
224 06-09-2020 18:35:00 19.7 C 8.66 g/m*3 19.7 C 9.7 km/h
225 06-09-2020 18:40:00 19.6 C 8.61 g/m*3 19.6 C 4.8 km/h
Sensor: Nr:Datum:Temp:Abs-Feuchte:Windchill:Wind:
Aussen-T/F 226 06-09-2020 18:45:00 19.6 C 8.95 g/m*3 19.6 C 1.6 km/h
227 06-09-2020 18:50:00 19.7 C 8.49 g/m*3 19.7 C 3.2 km/h
228 06-09-2020 18:55:00 19.7 C 8.83 g/m*3 19.7 C 3.2 km/h
229 06-09-2020 19:00:00 19.8 C 8.71 g/m*3 19.8 C 0 km/h
230 06-09-2020 19:05:00 19.8 C 8.37 g/m*3 19.8 C 4.8 km/h
231 06-09-2020 19:10:00 19.6 C 8.61 g/m*3 19.6 C 6.4 km/h
232 06-09-2020 19:15:00 19.3 C 8.46 g/m*3 19.3 C 3.2 km/h
233 06-09-2020 19:20:00 19.2 C 8.74 g/m*3 19.2 C 4.8 km/h
234 06-09-2020 19:25:00 18.9 C 8.91 g/m*3 18.9 C 4.8 km/h
235 06-09-2020 19:30:00 18.7 C 8.65 g/m*3 18.7 C 4.8 km/h
236 06-09-2020 19:35:00 18.4 C 9.28 g/m*3 18.4 C 0 km/h
237 06-09-2020 19:40:00 18.2 C 9.33 g/m*3 18.2 C 0 km/h
238 06-09-2020 19:45:00 17.8 C 9.11 g/m*3 17.8 C 0 km/h
239 06-09-2020 19:50:00 17.3 C 8.99 g/m*3 17.3 C 0 km/h
240 06-09-2020 19:55:00 16.8 C 9.01 g/m*3 16.8 C 0 km/h
241 06-09-2020 20:00:00 16.4 C 8.93 g/m*3 16.4 C 0 km/h
242 06-09-2020 20:05:00 15.9 C 8.8 g/m*3 15.9 C 0 km/h
243 06-09-2020 20:10:00 15.6 C 8.91 g/m*3 15.6 C 0 km/h
244 06-09-2020 20:15:00 15.2 C 8.7 g/m*3 15.2 C 0 km/h
245 06-09-2020 20:20:00 14.9 C 8.54 g/m*3 14.9 C 0 km/h
246 06-09-2020 20:25:00 14.7 C 8.56 g/m*3 14.7 C 0 km/h
247 06-09-2020 20:30:00 14.4 C 8.41 g/m*3 14.4 C 0 km/h
248 06-09-2020 20:35:00 14.2 C 8.43 g/m*3 14.2 C 0 km/h
249 06-09-2020 20:40:00 14.1 C 8.37 g/m*3 14.1 C 0 km/h
250 06-09-2020 20:45:00 13.9 C 8.39 g/m*3 13.9 C 0 km/h
Sensor: Nr:Datum:Temp:Abs-Feuchte:Windchill:Wind:
Aussen-T/F 251 06-09-2020 20:50:00 13.7 C 8.41 g/m*3 13.7 C 0 km/h
252 06-09-2020 20:55:00 13.6 C 8.47 g/m*3 13.6 C 0 km/h
253 06-09-2020 21:00:00 13.4 C 8.49 g/m*3 13.4 C 0 km/h
254 06-09-2020 21:05:00 13.3 C 8.55 g/m*3 13.3 C 0 km/h
255 06-09-2020 21:10:00 13.2 C 8.5 g/m*3 13.2 C 0 km/h
256 06-09-2020 21:15:00 13.1 C 8.56 g/m*3 13.1 C 0 km/h
257 06-09-2020 21:20:00 13 C 8.62 g/m*3 13 C 0 km/h
258 06-09-2020 21:25:00 12.8 C 8.51 g/m*3 12.8 C 0 km/h
259 06-09-2020 21:30:00 12.7 C 8.57 g/m*3 12.7 C 0 km/h
260 06-09-2020 21:35:00 12.6 C 8.63 g/m*3 12.6 C 0 km/h
261 06-09-2020 21:40:00 12.6 C 8.74 g/m*3 12.6 C 0 km/h
262 06-09-2020 21:45:00 12.5 C 8.69 g/m*3 12.5 C 0 km/h
263 06-09-2020 21:50:00 12.4 C 8.74 g/m*3 12.4 C 0 km/h
264 06-09-2020 21:55:00 12.4 C 8.85 g/m*3 12.4 C 0 km/h
265 06-09-2020 22:00:00 12.4 C 8.85 g/m*3 12.4 C 0 km/h
266 06-09-2020 22:05:00 12.4 C 8.85 g/m*3 12.4 C 0 km/h
267 06-09-2020 22:10:00 12.3 C 8.9 g/m*3 12.3 C 0 km/h
268 06-09-2020 22:15:00 12.3 C 8.9 g/m*3 12.3 C 0 km/h
269 06-09-2020 22:20:00 12.3 C 8.8 g/m*3 12.3 C 0 km/h
270 06-09-2020 22:25:00 12.3 C 8.9 g/m*3 12.3 C 0 km/h
271 06-09-2020 22:30:00 12.3 C 8.9 g/m*3 12.3 C 0 km/h
272 06-09-2020 22:35:00 12.4 C 8.96 g/m*3 12.4 C 0 km/h
273 06-09-2020 22:40:00 12.3 C 8.8 g/m*3 12.3 C 0 km/h
274 06-09-2020 22:45:00 12.4 C 8.85 g/m*3 12.4 C 0 km/h
275 06-09-2020 22:50:00 12.4 C 8.96 g/m*3 12.4 C 0 km/h
Sensor: Nr:Datum:Temp:Abs-Feuchte:Windchill:Wind:
Aussen-T/F 276 06-09-2020 22:55:00 12.4 C 8.96 g/m*3 12.4 C 0 km/h
277 06-09-2020 23:00:00 12.5 C 9.02 g/m*3 12.5 C 0 km/h
278 06-09-2020 23:05:00 12.5 C 9.02 g/m*3 12.5 C 0 km/h
279 06-09-2020 23:10:00 12.5 C 9.02 g/m*3 12.5 C 0 km/h
280 06-09-2020 23:15:00 12.6 C 9.07 g/m*3 12.6 C 0 km/h
281 06-09-2020 23:20:00 12.6 C 9.07 g/m*3 12.6 C 0 km/h
282 06-09-2020 23:25:00 12.6 C 9.07 g/m*3 12.6 C 0 km/h
283 06-09-2020 23:30:00 12.5 C 8.91 g/m*3 12.5 C 0 km/h
284 06-09-2020 23:35:00 12.6 C 8.96 g/m*3 12.6 C 3.2 km/h
285 06-09-2020 23:40:00 12.6 C 8.96 g/m*3 12.6 C 0 km/h
286 06-09-2020 23:45:00 12.6 C 8.96 g/m*3 12.6 C 0 km/h
287 06-09-2020 23:50:00 12.6 C 9.07 g/m*3 12.6 C 0 km/h
288 06-09-2020 23:55:00 12.7 C 9.13 g/m*3 12.7 C 0 km/h

Legende:
   Min
   Max


Maximal/Minimal-Werte vom 06.09.2020 - 06.09.2020

Sensor Min Max Avg
Temp
(Aussen-T/F)
7.9 °C
06-09-2020  07:05:00
19.8 °C
06-09-2020  19:00:00
13.28 °C
Abs-Feuchte
(Aussen-T/F)
7.72 g/m*3
06-09-2020  07:05:00
9.83 g/m*3
06-09-2020  11:05:00
8.62 g/m*3
Windchill
(Aussen-T/F)
7.9 C
06-09-2020  07:05:00
19.8 C
06-09-2020  19:00:00
13.23 C

Die Daten stammen von einer Davis Vantage Pro 2 Wetter-Station und werden unter Linux mit der Software wview2wettercgi und aufbereitet. Alle Angaben erfolgen ohne Gewähr für ihre Vollständigkeit oder Richtigkeit.
Kontakt: Rainer Krienke krienke@uni-koblenz.de . Meine Webseiten an der Uni Koblenz oder privat.
Version: $Revision: 0.78 $